Location: Unnamed
(47.6578°N, 23.5640°E)
Time: 22:16:11
(UTC+03:00)

ISS - Pass Details

Date: 29 April 2020
Orbit: 418 x 421 km, 51.6° (Epoch: 08 May)

Event Time Altitude Azimuth Distance (km) Brightness Sun altitude
Exits shadow 04:41:54 14° 177° (S) 1,289 -1.6 -13.6°
Maximum altitude 04:43:41 20° 138° (SE) 1,042 -1.7 -13.4°
Drops below altitude 10° 04:46:12 10° 90° (E) 1,498 -0.2 -13.1°
Sets 04:48:40 0° 73° (ENE) 2,367 1.5 -12.8°
